Погода в Саме

Погода в Саме : погода сейчас, прогноз погоды и архив. Всё, что Вы хотите узнать о погоде в Саме!

Поиск расширенной информации на нашем сайте:

Другие новости

Новости СМИ2

Главная страница сайта

Новости сайта

02.10.2013

Напоминаем, что на нашем новом сайте вы можете получить высокодетализированные прогнозы погоды по пунктам России, СНГ и мира (включающие важные для авиации метеовеличины, такие как направление и скорость ветра, видимость, явления погоды, количество и форма облачности, нижняя и верхняя граница облачности), а также ознакомиться с разнообразными материалами по авиационной метеорологии и подборкой полезных ссылок на эту тему.

Сайт Метеоцентр.Азия посвящён разработке технологий оптимизации авиаметеорологического обслуживания, включая проектирование и перспективное создание нескольких автоматизированных авиаметеорологических систем:
- система выпуска высокодетальных прогностических карт явлений погоды для нижнего воздушного пространства по России и ближнему зарубежью;
- система верификации прогнозов TAF (выпускаемых синоптиками официальных АМСГ РФ и ближнего зарубежья) и AUTOTAF (выпускаемых сайтом Метеоцентр.Азия) - выявление ошибок, онлайн-сопоставление с фактической погодой METAR, автоматическое внесение коррективов в прогнозы при резком отклонении фактической погоды от прогноза, подсчёт оправдываемости прогнозов по элементам и в целом;
- система обработки, анализа и отображения авиаметеорологической информации для применения провайдерами метеорологической информации.

Рекомендуем: Наши партнеры: www.careprost-moscow.ru

Погода в Саме - сегодня

Время (UTC), дата Ветер
(°,м/с) 
Видим.   Явления Облачность Т
(°С)
Тd
(°С)
f(%) Тe
(°С)
Pmin
(гПа)
dP
(гПа)
Po
(мм)
O2
(г/м3)
Тmin Tmax R s Состояние
почвы
00 24.03.17 тихо ()   н/о    ясно 
-0.3 -1.2 94 -0  1025.1  -0.3  760  307           
03 24.03.17 290 (З) 20000 м  дымка  10/10 1000 м 
[Sc]
+0.5 -0.9 90 +1  1026.6  0.5  762  306           
06 24.03.17 340 (С) 20000 м    8/0 средняя 
[Ac cast]
+5.8 +1 71 +7  1027.3  0.8  763  300  -0.5         
09 24.03.17 360 (С) 20000 м    8/4 1000 м средняя 
[Cu hum|Ac lent]
+9.9 +0.9 53 +10  1026.3  -0.8  762  295           
12 24.03.17 020 (С) 20000 м    9/9 1000 м 
[Cu med, cong]
+11 +1.3 51 +11  1025.4  -0.8  761  295           
15 24.03.17 090 (В) н/о    9/9 1000 м 
[Sc]
+9.2 +2.7 64 +10  1026  0.5  762  296    +11.7       
18 24.03.17 тихо ()   н/о    ясно 
+6 +2.3 77 +6  1026.8  0.6  762  299    +11.7       
21 24.03.17 250 (З) н/о    10/10 1000 м 
[Sc]
+6.9 +2.8 75 +7  1026.3  -0.5  762  298           
00 25.03.17 230 (ЮЗ) н/о    9/9 1000 м 
[Sc]
+5.7 +3.3 85 +5  1025  -1.2  761  300           
03 25.03.17 270 (З) 4000 м  дымка  9/9 1000 м 
[Sc]
+4.8 +3.3 90 +4  1024.7  -0.3  761  300           
06 25.03.17 270 (З) 20000 м    9/4 1000 м средняя, верхняя 
[Cu Sc|Ac cast|Ci fib]
+9.2 +4.5 72 +10  1024.2  -0.3  761  295  +4.8         
09 25.03.17 270 (З) 20000 м    9/8 1000 м средняя 
[Sc diur, vesp|Ac cast]
+11.2 +3.2 58 +11  1022.1  -2.1  759  293           
12 25.03.17 250 (З) 20000 м  {ливн. осадки}  9/8 600 м кучево-дожд., средняя 
[Cb calv|Ac cast]
+11.2 +2.9 57 +11  1020.3  -1.8  757  293           
15 25.03.17 200 (Ю) н/о    9/8 600 м кучево-дожд., верхняя 
[Cb calv|Ci fib]
+9 +4.3 72 +8  1020  -0.3  757  294    +11.8  0.4     
18 25.03.17 180 (Ю) н/о    6/5 1000 м верхняя 
[Sc|Ci fib]
+7.3 +4.1 80 +6  1019.5  -0.6  757  296    +11.8  0.4     
21 25.03.17 180 (Ю) н/о    5/4 1000 м верхняя 
[Sc|Ci fib]
+7.3 +3.2 75 +6  1018.9  -0.6  757  296           
00 26.03.17 180 (Ю) н/о    3/0 верхняя 
[Ci fib]
+4.4 +1.1 79 +3  1019.5  0.5  756  300           
03 26.03.17 230 (ЮЗ) 20000 м    3/0 верхняя 
[Ci fib]
+2.8 +0.4 84 +1  1020.4  0.8  758  301           
06 26.03.17 230 (ЮЗ) 20000 м    3/0 верхняя 
[Ci fib]
+10.2 -0.7 47 +8  1019.8  -0.3  757  293  +2.3         
09 26.03.17 230 (ЮЗ) 20000 м    8/4 1000 м верхняя 
[Cu med, cong|Ci sp]
+13.8 -2.7 32 +12  1018.7  -1  757  290           
12 26.03.17 200 (Ю) 10  20000 м    8/5 1000 м верхняя 
[Cu med, cong|Ci sp]
+14.4 -1.7 33 +13  1017.6  -1.1  755  289           
15 26.03.17 200 (Ю) н/о    8/0 средняя, верхняя 
[Ac lent|Ci sp]
+12.1 -0.5 42 +11  1017.4  -0.3  756  291    +15.3       
18 26.03.17 200 (Ю) н/о    4/0 средняя 
[Ac lent]
+8.8 +0.6 56 +7  1017.6  0.1  756  294    +15.3       
21 26.03.17 200 (Ю) н/о    3/0 средняя 
[Ac lent]
+7.6 +0.9 62 +6  1017.9  0.3  756  295           
00 27.03.17 200 (Ю) н/о    3/0 средняя 
[Ac lent]
+6.2 +1.7 73 +4  1015.1  -2.8  753  296           
Время (UTC), дата Ветер
(°,м/с) 
Видим.   Явления Облачность Т
(°С)
Тd
(°С)
f(%) Тe
(°С)
Pmin
(гПа)
dP
(гПа)
Po
(мм)
O2
(г/м3)
Тmin Tmax R s Состояние
почвы

Для получения пояснительной информации подведите курсор к названию столбца.

ПОГОДА в Саме - архив

Всё, что Вы хотите узнать о погоде в Саме - удобно и подробно!

Выберите нужную дату (начиная с 1 января 2015* года) и нажмите кнопку "Найти".
Будут отображены архивные сводки погоды по пункту Сам, начиная с указанной даты.


Отображать данные в формате CSV (для использования в таблицах Excel)


Внимание! Наш архив погоды предназначен исключительно для личного некоммерческого использования в познавательных целях. Если Вам необходимы официальные справки о состоянии погоды (для производственных, юридических, коммерческих и т.п. целей), обращайтесь в органы Росгидромета.

*Примечание: данная дата относится к архиву по метеостанциям СССР (Россия, СНГ, Балтия).
Архив по метеостанциям Зарубежной Европы и Азии (кроме Китая) хранится 10 дней, по другим регионам земного шара (Китай, Африка, Америка, Австралия, Океания) - 1 день.

Сам - район местоположения метеостанции


Название, широта, долгота, высота метеостанции:
Сам 45.4°ш. 56.1°д. 82 м над ур. моря [Казахстан]

Дополнительная информация

В oтличие oт бoльшинства пoгoдных сайтoв мы публикуем пoдрoбную метеoинфoрмацию в детальнoм прoфессиoнальнoм фoрмате.

Характеристики температуры и влажнoсти вoздуха измеряются на высoте 2 м в тени вдали oт зданий и деревьев.
Скoрoсть ветра измеряется на высoте 10 м (на урoвне рoста челoвека скoрoсть ветра ниже в 1.5-2 раза). Если метеoстанция нахoдится в гoрoде или в лесу, тo скoрoсть ветра занижена на 2-4 м/с пo сравнению с oткрытым местoм. Скoрoсть ветра над акватoриями крупных рек и oзёр, а также на вершинах хoлмoв на 2-5 м/с выше, чем в oбычных услoвиях.
Атмoсфернoе давление в разных тoчках местнoсти мoжет значительнo oтличаться oт давления на метеoстанции, в зависимoсти oт услoвий рельефа (при пoдъёме на 10 м давление пoнижается примернo на 1 мм рт.ст.).